Waarnemingen

Advertentie
Mijn weer
A12-CPP, Nederland (6205): temperatuur & dauwpunt: 18.05.2017 04:00:00 - 24.05.2017 04:00:00 (CEST)A12-CPP, Nederland (6205): windsnelheid & windstoten: 18.05.2017 04:00:00 - 24.05.2017 04:00:00 (CEST)A12-CPP, Nederland (6205): windrichting: 18.05.2017 04:00:00 - 24.05.2017 04:00:00 (CEST)A12-CPP, Nederland (6205): luchtdruk: 18.05.2017 04:00:00 - 24.05.2017 04:00:00 (CEST)A12-CPP, Nederland (6205): zicht: 18.05.2017 04:00:00 - 24.05.2017 04:00:00 (CEST)
Datum & Tijd tt [°C] td [°C] ff [km/u] ff [kn] fx [km/u] fx [kn] dd ppp [hPa] vv [km]
24.05.2017 04:00:00 11,5 9,1 31 17 32 18 W 1020,9 10
24.05.2017 03:00:00 11,5 9,1 26 14 25 14 W 1021,1 10
24.05.2017 02:00:00 11,5 9,2 29 16 29 16 W 1021,4 10
24.05.2017 01:00:00 11,3 9,3 28 15 25 14 W 1021,4 10
24.05.2017 00:00:00 11,2 8,9 26 14 25 14 W 1021,1 10
23.05.2017 23:00:00 11,0 9,2 26 14 25 14 W 1021,1 10
23.05.2017 22:00:00 11,0 9,0 28 15 - - W 1020,5 10
23.05.2017 21:00:00 11,0 9,0 28 15 29 16 W 1020,0 10
23.05.2017 20:00:00 10,9 9,1 24 13 25 14 W 1019,7 10
23.05.2017 19:00:00 11,0 9,0 26 14 29 16 NW 1019,3 10
23.05.2017 18:00:00 10,9 9,0 26 14 29 16 W 1019,2 10
23.05.2017 17:00:00 10,9 8,9 31 17 32 18 NW 1018,9 10
23.05.2017 16:00:00 10,9 8,7 31 17 32 18 NW 1018,4 10
23.05.2017 15:00:00 10,9 8,4 35 19 36 19 NW 1017,8 10
23.05.2017 14:00:00 10,8 8,5 34 18 36 19 NW 1017,3 10
23.05.2017 13:00:00 10,7 8,7 39 21 40 21 NW 1016,6 10
23.05.2017 12:00:00 10,7 8,8 41 22 43 23 NW 1015,8 10
23.05.2017 11:00:00 10,8 9,0 46 25 43 23 NW 1015,0 10
23.05.2017 10:00:00 11,1 9,4 44 24 43 23 NW 1013,9 10
23.05.2017 09:00:00 11,1 9,7 39 21 40 21 NW 1013,2 10
23.05.2017 08:00:00 11,7 10,2 34 18 32 18 NW 1012,6 10
23.05.2017 07:00:00 12,1 10,2 28 15 32 18 NW 1012,2 9
23.05.2017 06:00:00 12,8 9,6 29 16 29 16 ZW 1012,0 10
23.05.2017 05:00:00 12,6 9,7 26 14 29 16 ZZW 1012,3 10
23.05.2017 04:00:00 12,6 9,4 28 15 29 16 Z 1012,5 10
23.05.2017 03:00:00 12,4 9,5 35 19 32 18 ZZO 1012,7 10
23.05.2017 02:00:00 12,5 9,8 34 18 32 18 ZZO 1013,5 10
23.05.2017 01:00:00 12,6 9,7 34 18 36 19 ZZO 1014,5 10
23.05.2017 00:00:00 12,3 9,5 34 18 32 18 ZZO 1015,0 10
22.05.2017 23:00:00 12,0 9,7 34 18 36 19 ZO 1015,4 10
22.05.2017 22:00:00 11,8 9,9 37 20 36 19 ZO 1015,8 10
22.05.2017 21:00:00 11,6 9,9 34 18 40 21 ZO 1016,1 10
22.05.2017 20:00:00 11,7 10,0 37 20 36 19 ZO 1016,5 10
22.05.2017 19:00:00 11,7 10,0 35 19 32 18 ZO 1017,3 10
22.05.2017 18:00:00 11,6 9,9 29 16 29 16 ZZO 1018,0 10
22.05.2017 17:00:00 11,4 9,9 13 7 29 16 O 1018,3 10
22.05.2017 16:00:00 10,9 9,5 24 13 29 16 ZO 1019,0 10
22.05.2017 15:00:00 10,6 9,5 13 7 29 16 O 1019,7 10
22.05.2017 14:00:00 10,3 9,9 15 8 25 14 - 1020,2 10
22.05.2017 13:00:00 10,0 10,0 15 8 22 12 O 1020,5 10
22.05.2017 12:00:00 9,4 9,4 13 7 18 10 O 1021,0 6
22.05.2017 11:00:00 9,0 9,0 11 6 18 10 - 1021,3 5
22.05.2017 10:00:00 8,6 8,6 9 5 18 10 - 1021,6 2,6
22.05.2017 09:00:00 8,5 8,4 13 7 18 10 ZO 1021,8 1,0
22.05.2017 08:00:00 8,8 8,6 22 12 22 12 ZZO 1022,0 2,8
22.05.2017 07:00:00 9,0 8,9 24 13 25 14 ZZO 1022,0 0,2
22.05.2017 06:00:00 9,7 8,9 24 13 25 14 ZZO 1022,1 10
22.05.2017 05:00:00 10,4 9,5 21 11 18 10 ZZO 1022,4 10
22.05.2017 04:00:00 10,4 9,4 18 10 18 10 ZZO 1022,7 10
22.05.2017 03:00:00 10,4 9,2 21 11 18 10 - 1023,3 10
22.05.2017 02:00:00 10,4 9,3 18 10 18 10 - 1023,6 10
22.05.2017 01:00:00 10,4 9,5 16 9 18 10 Z 1023,9 10
22.05.2017 00:00:00 10,4 9,5 18 10 22 12 Z 1024,3 10
21.05.2017 23:00:00 10,5 9,5 21 11 22 12 Z 1024,4 10
21.05.2017 22:00:00 10,4 9,6 18 10 18 10 Z 1024,3 10
21.05.2017 21:00:00 10,5 9,6 16 9 18 10 Z 1024,5 10
21.05.2017 20:00:00 10,6 9,6 18 10 18 10 ZZW 1024,6 10
21.05.2017 19:00:00 11,4 9,6 22 12 25 14 ZZW 1024,7 10
21.05.2017 18:00:00 11,5 9,6 28 15 25 14 ZZW 1024,7 10
21.05.2017 17:00:00 11,1 9,8 18 10 - - ZZW 1025,0 19
21.05.2017 16:00:00 10,8 9,3 24 13 25 14 ZZW 1025,2 10
21.05.2017 15:00:00 10,9 9,3 26 14 29 16 ZZW 1025,0 10
21.05.2017 14:00:00 11,0 8,9 29 16 32 18 ZZW 1025,0 10
21.05.2017 13:00:00 10,9 9,3 28 15 29 16 ZZW 1024,9 10
21.05.2017 12:00:00 10,7 9,6 24 13 29 16 ZZW 1024,6 10
21.05.2017 11:00:00 10,5 9,5 24 13 25 14 ZZW 1024,2 10
21.05.2017 10:00:00 10,4 9,5 24 13 25 14 ZZW 1023,8 10
21.05.2017 09:00:00 10,5 9,4 22 12 25 14 ZZW 1023,0 10
21.05.2017 08:00:00 10,6 9,2 24 13 29 16 ZZW 1022,5 10
21.05.2017 07:00:00 10,6 8,8 29 16 36 19 ZZW 1021,9 10
21.05.2017 06:00:00 10,7 8,7 35 19 36 19 ZZW 1021,6 10
21.05.2017 05:00:00 10,6 8,5 29 16 32 18 ZZW 1021,3 10
21.05.2017 04:00:00 10,4 9,0 31 17 40 21 ZZW 1021,1 10
21.05.2017 03:00:00 10,7 9,4 29 16 40 21 Z 1021,0 5
21.05.2017 02:00:00 10,8 9,0 39 21 40 21 Z 1020,7 10
21.05.2017 01:00:00 10,7 8,9 41 22 43 23 Z 1020,7 10
21.05.2017 00:00:00 10,8 8,9 41 22 40 21 Z 1020,4 10
20.05.2017 23:00:00 10,8 8,7 39 21 40 21 Z 1020,3 10
20.05.2017 22:00:00 10,9 8,8 35 19 36 19 Z 1020,1 10
20.05.2017 21:00:00 10,6 9,3 35 19 36 19 Z 1019,8 10
20.05.2017 20:00:00 10,7 9,3 34 18 32 18 Z 1019,7 10
20.05.2017 19:00:00 10,8 8,7 34 18 32 18 Z 1019,4 10
20.05.2017 18:00:00 10,7 9,1 31 17 29 16 Z 1019,1 10
20.05.2017 17:00:00 10,6 9,3 31 17 29 16 Z 1018,6 10
20.05.2017 16:00:00 10,6 9,1 31 17 32 18 Z 1018,2 10
20.05.2017 15:00:00 10,6 8,7 28 15 29 16 Z 1017,4 10
20.05.2017 14:00:00 10,4 8,9 26 14 29 16 ZZW 1017,1 10
20.05.2017 13:00:00 10,2 9,1 26 14 29 16 ZZW 1016,4 10
20.05.2017 12:00:00 10,2 8,3 28 15 32 18 ZZW 1015,9 10
20.05.2017 11:00:00 10,5 7,8 34 18 40 21 ZZW 1015,0 10
20.05.2017 10:00:00 10,4 7,8 41 22 43 23 ZZW 1014,2 10
20.05.2017 09:00:00 10,0 7,9 42 23 47 25 ZZW 1013,2 10
20.05.2017 08:00:00 10,0 8,0 39 21 47 25 ZW 1012,4 10
20.05.2017 07:00:00 10,1 7,7 42 23 47 25 ZW 1011,3 10
20.05.2017 06:00:00 10,1 8,4 42 23 47 25 ZZW 1010,6 10
20.05.2017 05:00:00 10,1 8,6 42 23 47 25 ZZW 1010,2 10
20.05.2017 04:00:00 10,3 8,6 46 25 47 25 ZZW 1009,3 10
20.05.2017 03:00:00 10,4 8,6 42 23 43 23 ZZW 1009,4 10
20.05.2017 02:00:00 10,3 8,9 39 21 43 23 ZZW 1008,8 10
20.05.2017 01:00:00 10,2 9,5 35 19 36 19 Z 1008,6 10
20.05.2017 00:00:00 10,0 9,7 37 20 40 21 Z 1008,0 2,1
19.05.2017 23:00:00 10,0 9,7 37 20 36 19 ZZO 1007,7 0,6
19.05.2017 22:00:00 10,0 9,7 42 23 40 21 ZZO 1007,2 0,4
19.05.2017 21:00:00 10,0 9,6 41 22 40 21 ZZO 1006,6 0,4
19.05.2017 20:00:00 10,1 9,7 46 25 43 23 ZZO 1006,2 0,5
19.05.2017 19:00:00 10,1 9,5 46 25 47 25 ZZO 1005,8 4,4
19.05.2017 18:00:00 10,6 9,1 52 28 50 27 ZO 1005,6 10
19.05.2017 17:00:00 10,8 9,0 46 25 47 25 ZO 1006,1 10
19.05.2017 16:00:00 11,0 9,1 26 14 43 23 ZO 1006,7 10
19.05.2017 15:00:00 11,3 9,9 39 21 54 29 O 1006,9 10
19.05.2017 14:00:00 9,9 9,3 52 28 54 29 O 1007,1 5
19.05.2017 13:00:00 9,5 8,8 52 28 54 29 O 1007,4 6
19.05.2017 12:00:00 9,9 8,1 50 27 50 27 O 1008,1 10
19.05.2017 11:00:00 10,1 8,0 52 28 50 27 ONO 1008,1 10
19.05.2017 10:00:00 10,1 8,3 46 25 47 25 O 1008,4 10
19.05.2017 09:00:00 10,1 8,0 42 23 43 23 ONO 1008,6 10
19.05.2017 08:00:00 10,2 8,3 37 20 36 19 ONO 1009,1 10
19.05.2017 07:00:00 10,1 8,5 31 17 32 18 ONO 1009,9 10
19.05.2017 06:00:00 9,6 8,9 34 18 36 19 ONO 1010,1 10
19.05.2017 05:00:00 9,1 8,6 26 14 29 16 ONO 1010,2 10
19.05.2017 04:00:00 8,7 8,6 13 7 18 10 ONO 1011,2 0,4
19.05.2017 03:00:00 8,2 8,2 11 6 14 8 ONO 1011,8 0,4
19.05.2017 02:00:00 7,9 7,8 13 7 14 8 ONO 1012,0 0,3
19.05.2017 01:00:00 7,6 7,5 8 4 11 6 NNO 1012,5 0,2
19.05.2017 00:00:00 7,6 7,5 4 2 7 4 - 1012,8 0,2
18.05.2017 23:00:00 7,8 7,8 5 3 7 4 WZW 1013,6 0,3
18.05.2017 22:00:00 8,3 8,2 8 4 7 4 ZW 1013,4 0,1
18.05.2017 21:00:00 10,2 9,5 8 4 14 8 ZZW 1013,3 10
18.05.2017 20:00:00 11,1 9,7 13 7 14 8 ZZW 1013,5 10
18.05.2017 19:00:00 11,2 9,5 11 6 11 6 ZW 1013,3 10
18.05.2017 18:00:00 11,2 9,7 11 6 14 8 ZW 1013,2 10
18.05.2017 17:00:00 10,9 9,5 15 8 22 12 ZW 1013,3 10
18.05.2017 16:00:00 10,6 9,1 15 8 14 8 ZW 1013,0 10
18.05.2017 15:00:00 10,5 9,0 15 8 14 8 WZW 1012,9 10
18.05.2017 14:00:00 10,2 9,0 13 7 14 8 WZW 1012,5 10
18.05.2017 13:00:00 10,1 9,2 13 7 14 8 W 1012,3 10
18.05.2017 12:00:00 9,8 9,2 18 10 25 14 NNW 1011,5 10
18.05.2017 11:00:00 9,6 9,1 28 15 36 19 NNW 1010,6 9
18.05.2017 10:00:00 9,7 9,2 37 20 36 19 NNW 1009,8 4,3
18.05.2017 09:00:00 9,8 9,5 37 20 36 19 NW 1008,9 4,0
18.05.2017 08:00:00 9,9 9,7 37 20 36 19 NNW 1007,8 10
18.05.2017 07:00:00 10,4 10,0 35 19 36 19 NNW 1007,2 10
18.05.2017 06:00:00 10,4 10,1 31 17 36 19 N 1006,5 5
18.05.2017 05:00:00 10,2 10,0 41 22 40 21 N 1005,7 2,9
18.05.2017 04:00:00 10,3 10,1 42 23 40 21 N 1006,2 0,8

tt = temperatuur
td = dauwpunt
ff = windsnelheid
fx = windstoten
dd = windrichting
ppp = luchtdruk
vv = zicht

Weerstations in de omgeving